Regional Weather Roundup
Issued by NWS

Home | Current Version | Previous Version | Text Only | Print | Product List | Glossary On
Versions: 1 2 3 4 5 6 7 8 9 10 11 12 13 14 15 16 17 18 19 20 21 22 23 24 25 26 27 28 29 30 31 32 33 34 35 36 37 38 39 40 41 42 43 44 45 46 47 48 49 50
000
ASUS43 KMPX 271801
RWRMN
WEATHER ROUNDUP FOR MINNESOTA
NATIONAL WEATHER SERVICE TWIN CITIES/CHANHASSEN MN
100 PM CDT THU APR 27 2017


NOTE: "FAIR" INDICATES FEW OR NO CLOUDS BELOW 12,000 FEET WITH NO
SIGNIFICANT WEATHER AND/OR OBSTRUCTIONS TO VISIBILITY. N/A MEANS
CURRENT SKY AND/OR WEATHER CONDITIONS ARE NOT AVAILABLE.

MNZ060>063-068>070-271900-
   Twin Cities Metro

CITY           SKY/WX    TMP DP  RH WIND       PRES   REMARKS
TWIN CITIES    CLOUDY    34  25  69 NW15      29.58S WCI  24
6HR MIN TEMP:  32; 6HR MAX TEMP:  35; 6HR PCP:  0.01;

ST PAUL        CLOUDY    34  26  72 W16       29.59S WCI  24
CRYSTAL        CLOUDY    33  23  66 W14       29.57F WCI  23
BLAINE         CLOUDY    34  28  80 NW14      29.57F WCI  24
LAKEVILLE      CLOUDY    34  28  80 NW16      29.58S WCI  23
EDEN PRAIRIE   CLOUDY    35  26  69 W15       29.58S WCI  25
6HR MIN TEMP:  33; 6HR MAX TEMP:  35; 6HR PCP: TRACE;

SOUTH ST PAUL  CLOUDY    34  27  74 W12G22    29.58S WCI  26
LAKE ELMO      CLOUDY    32  28  86 NW8       29.58R WCI  25
$$
MNZ001>005-007-008-013>017-022>024-027-028-271900-
   Northwest Minnesota

CITY           SKY/WX    TMP DP  RH WIND       PRES   REMARKS
BEMIDJI        CLOUDY    26  20  78 N12G17    29.60S WCI  16
HALLOCK        PTSUNNY   37  25  60 N14       29.68S
ROSEAU         CLOUDY    30  23  74 N16       29.66S WCI  19
WARROAD        CLOUDY    28  25  86 N14       29.66F FOG     WCI  17
THIEF RVR FALL CLOUDY    31  23  72 N16       29.67S WCI  20
CROOKSTON      CLOUDY    30  25  80 N15       29.69F WCI  19
FOSSTON        CLOUDY    30  19  64 N15G22    29.64S WCI  19
DETROIT LAKES  CLOUDY    30  23  74 N14G20    29.65S WCI  20
MOORHEAD       PTSUNNY   30  25  80 N9        29.70R WCI  22
PARK RAPIDS    CLOUDY    28  18  66 N16       29.59S WCI  16
MAHNOMEN       CLOUDY    28  21  75 N6        29.64S WCI  22
$$
MNZ006-009>011-018-025>026-271900-
   North Central Minnesota

CITY           SKY/WX    TMP DP  RH WIND       PRES   REMARKS
BAUDETTE       CLOUDY    27  18  69 N13       29.61F WCI  16
FLAG ISLAND    CLOUDY    27  21  80 N18       29.64F WCI  13
INTL FALLS     LGT SNOW  26  18  71 N13       29.57F VSB 3/4 WCI  15
6HR MIN TEMP:  21; 6HR MAX TEMP:  26; 6HR PCP: TRACE;

WASKISH        CLOUDY    27  19  74 N10G18    29.61S WCI  17
BIG FORK       CLOUDY    28  16  59 N8        29.55F WCI  20
LONGVILLE      CLOUDY    27  19  74 NW6       29.58S WCI  20
GRAND RAPIDS   FLURRIES  26  19  74 N17       29.56F WCI  13
CRANE LAKE     CLOUDY    25  16  68 N10G17    29.54F WCI  15
ORR            CLOUDY    25  14  63 NW10G16   29.50F WCI  15
COOK           CLOUDY    27  16  63 NW10G18   29.52F WCI  17
WALKER         CLOUDY    25  18  73 N14G20    29.59S WCI  13
$$
MNZ012-019>021-037-271900-
   Northeast Minnesota

CITY           SKY/WX    TMP DP  RH WIND       PRES   REMARKS
DULUTH         CLOUDY    26  20  77 NW13      29.48S WCI  15
6HR MIN TEMP:  23; 6HR MAX TEMP:  26;

ELY            FLURRIES  25  16  68 NW14      29.47F WCI  13
HIBBING        CLOUDY    26  18  71 NW16      29.51F WCI  14
EVELETH        CLOUDY    26  17  68 NW8       29.51S WCI  17
DULUTH HARBOR  CLOUDY    30  23  74 W12       29.54R WCI  21
TWO HARBORS    CLOUDY    30  21  69 NW8       29.47R WCI  23
SILVER BAY     CLOUDY    27  21  80 NW8       29.45S WCI  18
G MARAIS ARPRT LGT SNOW  18  14  86 CALM      29.39S
$$
MNZ029>031-032-039>041-046>048-054>057-064-271900-
   West Central Minnesota

CITY           SKY/WX    TMP DP  RH WIND       PRES   REMARKS
FERGUS FALLS   CLOUDY    28  21  74 NW17      29.66F WCI  16
WHEATON        CLOUDY    32  23  69 N16G25    29.71S WCI  21
MORRIS         CLOUDY    34  23  64 NW20G28   29.65R WCI  22
ALEXANDRIA     CLOUDY    29  22  75 N14       29.63R WCI  18
ELBOW LAKE     CLOUDY    30  22  74 N16       29.66R WCI  18
WADENA         CLOUDY    27  21  80 N7        29.61S WCI  19
GLENWOOD       CLOUDY    28  25  86 NW12      29.63S WCI  18
APPLETON       CLOUDY    36  23  60 N16G25    29.67S
BENSON         CLOUDY    34  23  64 N17       29.67S WCI  23
ORTONVILLE     CLOUDY    32  21  64 N17G26    29.69R WCI  21
MADISON        CLOUDY    36  27  69 NW17G25   29.69R
WILLMAR        CLOUDY    32  27  80 NW17      29.65R WCI  21
$$
MNZ033>034-036-042>043-049>051-058-059-271900-
   Central Minnesota

CITY           SKY/WX    TMP DP  RH WIND       PRES   REMARKS
ST CLOUD       CLOUDY    32  24  72 N10       29.60S WCI  24
6HR MIN TEMP:  29; 6HR MAX TEMP:  32;

SAUK CENTRE    CLOUDY    29  21  72 N12       29.62S WCI  19
PAYNESVILLE    CLOUDY    31  25  78 NW12G20   29.62S WCI  21
AITKIN         CLOUDY    28  19  69 NW8       29.56S WCI  20
PINE RIVER     CLOUDY    27  19  74 N9        29.63S WCI  17
BRAINERD       CLOUDY    27  20  75 N14       29.59S WCI  16
STAPLES        CLOUDY    27  21  80 NW9       29.60F WCI  17
LONG PRAIRIE   CLOUDY    28  21  74 NW9       29.62S WCI  20
LITTLE FALLS   CLOUDY    28  21  74 NW8       29.61S WCI  20
LITCHFIELD     CLOUDY    32  25  74 NW12G20   29.62S WCI  23
BUFFALO        CLOUDY    32  26  79 W10       29.61S WCI  23
MAPLE LAKE     CLOUDY    32  27  82 W12       29.61S WCI  23
HUTCHINSON     CLOUDY    34  27  75 NW13      29.62F WCI  25
$$
MNZ037-044-045-052-053-271900-
   East Central Minnesota

CITY           SKY/WX    TMP DP  RH WIND       PRES   REMARKS
PRINCETON      CLOUDY    32  25  74 W14G20    29.59S WCI  22
MORA           CLOUDY    30  23  74 NW14      29.58S WCI  20
CAMBRIDGE      FLURRIES  32  23  69 W8G18     29.56S WCI  25
RUSH CITY      CLOUDY    30  24  79 NW8G18    29.57S WCI  22
MOOSE LAKE     CLOUDY    30  21  69 NW12      29.53S WCI  21
HINCKLEY       CLOUDY    30  23  74 NW8G16    29.56S WCI  23
CLOQUET        CLOUDY    27  19  74 W13       29.51S WCI  16
MCGREGOR       CLOUDY    28  21  74 NW10      29.56S WCI  19
$$
MNZ071>073-080-081-089-090-097-098-271900-
   Southwest Minnesota

CITY           SKY/WX    TMP DP  RH WIND       PRES   REMARKS
MONTEVIDEO     CLOUDY    34  25  69 N17G25    29.66S WCI  23
GRANITE FALLS  CLOUDY    34  26  72 NW17G24   29.69S WCI  23
CANBY          CLOUDY    36  26  68 W17G25    29.69S
MARSHALL       CLOUDY    33  25  72 NW18G24   29.67S WCI  22
REDWOOD FALLS  CLOUDY    34  24  67 NW16G22   29.65S WCI  24
OLIVIA         CLOUDY    32  28  86 NW14G22   29.64S WCI  22
PIPESTONE      CLOUDY    36  23  60 NW15G21   29.66S
WINDOM         SUNNY     34  27  75 NW16G22   29.65S WCI  23
WORTHINGTON    CLOUDY    35  26  69 NW17      29.66F WCI  25
JACKSON        CLOUDY    34  27  75 W17G25    29.65F WCI  23
TRACY          CLOUDY    33  28  81 NW14      29.67S WCI  23
SLAYTON        CLOUDY    33  26  77 NW20G28   29.66S WCI  21
$$
MNZ065>067-074>077-082>085-091>093-271900-
   South Central Minnesota

CITY           SKY/WX    TMP DP  RH WIND       PRES   REMARKS
MANKATO        LGT RAIN  33  28  81 NW16      29.62S WCI  23
NEW ULM        CLOUDY    32  28  86 NW16      29.64S WCI  21
ST JAMES       CLOUDY    36  28  75 W17G23    29.65S
GLENCOE        CLOUDY    34  30  85 NW12      29.61S WCI  25
FARIBAULT      CLOUDY    36  28  75 W15       29.60S
OWATONNA       CLOUDY    36  28  75 W17G23    29.59S
WASECA         CLOUDY    36  32  87 W20G25    29.62S
ALBERT LEA     LGT SNOW  34  30  86 W12G21    29.60S WCI  25
$$
MNZ078>079-086>088-094>096-271900-
   Southeast Minnesota

CITY           SKY/WX    TMP DP  RH WIND       PRES   REMARKS
ROCHESTER      CLOUDY    36  32  85 W18G24    29.57R
6HR MIN TEMP:  32; 6HR MAX TEMP:  37; 6HR PCP:  0.02;

RED WING       CLOUDY    36  25  64 W12G20    29.57R
STANTON        CLOUDY    35  31  83 W14       29.57S WCI  26
DODGE CENTER   PTSUNNY   36  30  80 W14       29.57R
WINONA         CLOUDY    39  32  75 W10       29.56R
AUSTIN         CLOUDY    36  28  75 W16G25    29.59R
PRESTON        CLOUDY    36  30  81 W17G25    29.57S
$$
ABBREVIATIONS USED IN REMARKS
   TC - TEMPERATURES IN CELSIUS
  WCI - WIND CHILL INDEX
   HX - HEAT INDEX
  VSB - VISIBILITY
$$




USA.gov is the U.S. government's official web portal to all federal, state and local government web resources and services.